sat.trackr.live / text

‹ back to catalog

STARLINK-5338

NORAD 55286 · 2023-010T

PAYLOAD ACTIVE UNKNOWN

§ Identity

Operator
Country
US
Launch date
2023-01-19
Launch site
AFWTR
Launch vehicle
Mass (kg)
RCS (m²)

Purposes: comms

External: N2YO · Heavens-Above · Gunter

§ Orbital elements

Epoch: 2026-09-20T22:27:29.704608Z

Period
96.11 min
Inclination
69.9981°
Eccentricity
0.0003857
Mean motion
14.98330002 rev/d
Perigee alt
569.4 km
Apogee alt
574.7 km
Semi-major
6,950.2 km
B*
-7.8591e-6
RAAN
252.2297°
Arg perigee
267.3942°
Mean anomaly
92.6775°
Rev number
20,251

§ Raw data

STARLINK-53381 55286U 23010T   26263.93576047 -.00000187  00000+0 -78591-5 0  99942 55286  69.9981 252.2297 0003857 267.3942  92.6775 14.98330002202511

JSON: /api/v1/satellites/55286 · /tle

For live sub-satellite position, see the globe view (requires WebGL).

§ Visibility from observer

Set your observer location to see the next 7 days of passes ≥ 10°. The values pass through the URL so the page stays shareable.

No JS? Fill the form by hand. The geolocation button needs JavaScript.